Location: Newark
(45.6000°N, 12.8833°E)
Time: 06:40:17
(UTC+00:00)

Vanguard 2 - All Passes

Search period start: 14 November 2019 00:00
Search period end: 24 November 2019 00:00
Orbit: 554 x 2937 km, 32.9° (Epoch: 13 November)

Date Brightness Start Highest point End Pass type
(mag) Time Alt. Az. Time Alt. Az. Time Alt. Az.
14 Nov - 09:13:14 10° SSW 09:16:55 16° S 09:19:55 10° SE daylight
14 Nov - 11:21:30 10° SW 11:24:33 17° S 11:27:12 10° SE daylight
15 Nov - 07:23:57 10° S 07:26:32 12° SSE 07:28:48 10° SE daylight
15 Nov - 09:30:20 10° SW 09:34:40 19° S 09:38:05 10° SE daylight
15 Nov - 11:39:22 10° SW 11:42:12 16° SSW 11:44:43 10° SSE daylight
16 Nov - 07:39:37 10° SSW 07:44:20 16° SSE 07:48:05 10° SE daylight
16 Nov - 09:47:45 10° SW 09:52:25 21° S 09:56:00 10° SE daylight
16 Nov - 11:57:30 10° SW 11:59:50 14° SSW 12:01:58 10° SSE daylight
17 Nov - 05:53:05 10° SSE 05:53:29 10° SSE 05:53:51 10° SSE daylight
17 Nov - 07:56:15 10° SSW 08:02:09 20° S 08:06:32 10° SE daylight
17 Nov - 10:05:22 10° SW 10:10:08 22° S 10:13:46 10° SE daylight
17 Nov - 12:16:10 10° SW 12:17:25 11° SSW 12:18:36 10° S daylight
18 Nov - 06:06:03 10° S 06:11:19 15° SSE 06:15:34 10° SE daylight
18 Nov - 08:13:22 10° SW 08:19:58 24° S 08:24:39 10° ESE daylight
18 Nov - 10:23:10 10° WSW 10:27:49 21° SSW 10:31:23 10° SE daylight
19 Nov - 06:21:58 10° SSW 06:29:09 19° SSE 06:34:30 10° ESE daylight
19 Nov - 08:30:45 10° SW 08:37:44 26° S 08:42:34 10° ESE daylight
19 Nov - 10:41:06 10° WSW 10:45:27 19° SSW 10:48:50 10° SSE daylight
20 Nov - 04:33:42 10° S 04:37:47 12° SSE 04:41:23 10° SE visible
20 Nov - 06:38:35 10° SSW 06:46:59 24° SSE 06:52:54 10° ESE daylight
20 Nov - 08:48:20 10° WSW 08:55:29 28° S 09:00:22 10° SE daylight
20 Nov - 10:59:16 10° WSW 11:03:01 17° SSW 11:06:04 10° SSE daylight
21 Nov - 04:48:06 10° S 04:55:36 17° SSE 05:01:33 10° ESE visible
21 Nov - 06:55:38 10° SW 07:04:48 28° S 07:11:00 10° ESE daylight
21 Nov - 09:06:06 10° WSW 09:13:12 28° S 09:18:02 10° SE daylight
21 Nov - 11:17:46 10° WSW 11:20:30 13° SSW 11:22:53 10° S daylight
22 Nov - 05:03:56 10° SSW 05:13:25 22° SSE 05:20:27 10° ESE visible
22 Nov - 07:12:58 10° SW 07:22:36 32° S 07:28:57 10° ESE daylight
22 Nov - 09:23:58 10° WSW 09:30:51 27° SSW 09:35:36 10° SE daylight
23 Nov - 03:15:58 10° S 03:21:36 13° SSE 03:26:35 10° SE visible
23 Nov - 05:20:26 10° SSW 05:31:14 27° SSE 05:38:52 10° ESE visible
23 Nov - 07:30:31 10° WSW 07:40:24 34° S 07:46:46 10° ESE daylight
23 Nov - 09:42:00 10° WSW 09:48:28 25° SSW 09:53:01 10° SSE daylight
